User: anonymous   Login
Location: Griffin Ranch
(33.6186°N, 110.6622°W)
Time: 22:55:09
(UTC-07:00)
Language:

Cosmos 1812 - Orbit

View from above orbital plane
View from above orbital plane
View from above satellite
View from above satellite

Ground track
Ground track

The orbit data is extracted from the following two-line orbital elements,

1 17295U 87003A   14295.34091792  .00006528  00000-0  40079-3 0  4526
2 17295 082.5179 015.9335 0002702 216.5832 184.7462 15.09945541512476
Epoch (UTC): 22 October 2014 08:10:55
Eccentricity: 0.0002702
inclination: 82.5179°
perigee height: 534 km
apogee height: 538 km
right ascension of ascending node: 15.9335°
argument of perigee: 216.5832°
revolutions per day: 15.09945541
mean anomaly at epoch: 184.7462°
orbit number at epoch: 51247

The dashed part of the orbit path shows where the satellite is in the earth's shadow,  

DLR